Regional Weather Roundup
Issued by NWS Cleveland, OH

Home | Current Version | Previous Version | Graphics & Text | Print | Product List | Glossary On
Versions: 1 2 3 4 5 6 7 8 9 10 11 12 13 14 15 16 17 18 19 20 21 22 23 24 25 26 27 28 29 30 31 32 33 34 35 36 37 38 39 40 41 42 43 44 45 46 47 48 49 50
000
ASUS41 KCLE 242102
RWRCLE
OHIO REGIONAL WEATHER ROUNDUP
NATIONAL WEATHER SERVICE CLEVELAND, OH
400 PM EST SAT FEB 24 2018

NOTE: "FAIR" INDICATES FEW OR NO CLOUDS BELOW 12,000 FEET WITH NO
SIGNIFICANT WEATHER AND/OR OBSTRUCTIONS TO VISIBILITY.

OHZ001>008-015>018-024>027-034-035-043-044-242200-
   NORTHWEST OHIO

CITY           SKY/WX    TMP DP  RH WIND       PRES   REMARKS
DEFIANCE       CLOUDY    40  35  83 E16       30.01F
FINDLAY        CLOUDY    43  38  82 NE13      30.01F
TOLEDO EXPRESS CLOUDY    39  32  76 E13G23    30.05F
TOLEDO EXEC    CLOUDY    38  31  76 NE13      30.08F
LIMA           CLOUDY    45  44  97 E13       29.99F
$$

OHZ009>014-019>023-028>033-038-089-242200-
   NORTHEAST OHIO

CITY           SKY/WX    TMP DP  RH WIND       PRES   REMARKS
CLE-HOPKINS    CLOUDY    41  37  86 NE8       30.09F
CLE-LAKEFRONT  CLOUDY    37  34  89 NE13      30.07F
CUY CO. ARPT   CLOUDY    41  36  81 E10       30.07F
LORAIN-ELYRIA  CLOUDY    39  32  76 NE14      30.07F
ASHTABULA      CLOUDY    40  33  76 E6        30.08F
AKRON-CANTON   CLOUDY    46  42  86 NE7       30.06R
WOOSTER        CLOUDY    45  43  93 E8        30.05F
MANSFIELD      CLOUDY    46  45  96 E10       30.01F
YOUNGSTOWN     PTSUNNY   48  43  82 E9        30.04F
$$

OHZ042-051>053-060>062-070>072-077>081-242200-
  SOUTHWEST OHIO

CITY           SKY/WX    TMP DP  RH WIND       PRES   REMARKS
CINC-COVINGTON CLOUDY    55  51  86 E6        29.95R
CINC-LUNKEN    LGT RAIN  57  52  83 CALM      29.96S
HAMILTON       LGT RAIN  54  49  83 E6        29.98R
DAYTON         CLOUDY    49  47  93 E12       29.96F
WRIGHT-PAT AFB CLOUDY    51  47  88 E10       29.96F
DAYTON GENERAL LGT RAIN  51  47  86 E8        29.95F
WILMINGTON     CLOUDY    51  50  96 E7        29.96F
$$

OHZ036-037-039>041-045>050-054>059-063>069-073>076-082>088-242200-
  CENTRAL AND SOUTHEAST OHIO

CITY           SKY/WX    TMP DP  RH WIND       PRES   REMARKS
COLUMBUS       LGT RAIN  51  48  89 E10       30.00R
OSU AIRPORT    CLOUDY    51  48  89 E8        30.00R
BOLTON FIELD   LGT RAIN  50  46  87 E6        30.01R
RICKENBACK AFB CLOUDY    50  48  94 E9        29.99S
NEWARK         CLOUDY    51  46  83 E9        29.99F
MARION         CLOUDY    48  44  86 E13       30.01F
LANCASTER      CLOUDY    50  47  89 E9        30.00S
ZANESVILLE     CLOUDY    51  46  83 E9        30.00F
NEW PHILLY     NOT AVBL
$$




USA.gov is the U.S. government's official web portal to all federal, state and local government web resources and services.